Time,TemperatureF,DewpointF,PressureIn,WindDirection,WindDirectionDegrees,WindSpeedMPH,WindSpeedGustMPH,Humidity,HourlyPrecipIn,Conditions,Clouds,dailyrainin,SolarRadiationWatts/m^2,SoftwareType,DateUTC
2013-08-12 00:02:00,61.6,58.0,29.99,SSE,148,0.0,-999.0,88,-99.99,,,0.00,0,weatherlink.com 1.10,2013-08-12 04:02:00,
2013-08-12 00:17:00,61.3,58.0,29.99,SSE,148,0.0,-999.0,89,-99.99,,,0.00,0,weatherlink.com 1.10,2013-08-12 04:17:00,
2013-08-12 00:32:00,61.0,58.0,29.99,SSE,148,0.0,-999.0,89,-99.99,,,0.00,0,weatherlink.com 1.10,2013-08-12 04:32:00,
2013-08-12 00:47:00,60.7,58.0,29.99,SSE,148,0.0,-999.0,90,-99.99,,,0.00,0,weatherlink.com 1.10,2013-08-12 04:47:00,
2013-08-12 01:02:00,60.5,58.0,29.99,SSE,148,0.0,-999.0,90,-99.99,,,0.00,0,weatherlink.com 1.10,2013-08-12 05:02:00,
2013-08-12 01:17:00,60.4,58.0,29.99,SSE,148,0.0,-999.0,90,-99.99,,,0.00,0,weatherlink.com 1.10,2013-08-12 05:17:00,
2013-08-12 01:33:00,60.1,58.0,29.98,SSE,148,0.0,-999.0,91,-99.99,,,0.00,0,weatherlink.com 1.10,2013-08-12 05:33:00,
2013-08-12 01:48:00,59.9,57.0,29.98,SSE,148,0.0,-999.0,91,-99.99,,,0.00,0,weatherlink.com 1.10,2013-08-12 05:48:00,
2013-08-12 02:03:00,59.6,57.0,29.98,SSE,148,0.0,-999.0,92,-99.99,,,0.00,0,weatherlink.com 1.10,2013-08-12 06:03:00,
2013-08-12 02:18:00,59.5,57.0,29.99,SSE,148,0.0,-999.0,92,-99.99,,,0.00,0,weatherlink.com 1.10,2013-08-12 06:18:00,
2013-08-12 02:33:00,59.3,57.0,29.99,SSE,148,0.0,-999.0,92,-99.99,,,0.00,0,weatherlink.com 1.10,2013-08-12 06:33:00,
2013-08-12 02:48:00,59.0,57.0,29.99,SSE,148,0.0,-999.0,92,-99.99,,,0.00,0,weatherlink.com 1.10,2013-08-12 06:48:00,
2013-08-12 03:03:00,58.9,57.0,29.98,SSE,148,0.0,-999.0,93,-99.99,,,0.00,0,weatherlink.com 1.10,2013-08-12 07:03:00,
2013-08-12 03:18:00,58.7,57.0,29.98,SSE,148,0.0,-999.0,94,-99.99,,,0.01,0,weatherlink.com 1.10,2013-08-12 07:18:00,
2013-08-12 03:34:00,58.7,57.0,29.98,ESE,105,0.0,-999.0,94,-99.99,,,0.01,0,weatherlink.com 1.10,2013-08-12 07:34:00,
2013-08-12 03:48:00,58.7,57.0,29.97,ESE,105,0.0,-999.0,94,-99.99,,,0.01,0,weatherlink.com 1.10,2013-08-12 07:48:00,
2013-08-12 04:04:00,58.6,57.0,29.97,East,98,0.0,-999.0,95,-99.99,,,0.02,0,weatherlink.com 1.10,2013-08-12 08:04:00,
2013-08-12 04:21:00,58.6,57.0,29.97,East,98,0.0,-999.0,95,-99.99,,,0.02,0,weatherlink.com 1.10,2013-08-12 08:21:00,
2013-08-12 04:34:00,58.4,57.0,29.97,East,98,0.0,-999.0,95,-99.99,,,0.02,0,weatherlink.com 1.10,2013-08-12 08:34:00,
2013-08-12 04:51:00,58.4,57.0,29.97,East,98,0.0,-999.0,95,-99.99,,,0.02,0,weatherlink.com 1.10,2013-08-12 08:51:00,
2013-08-12 05:04:00,58.3,57.0,29.97,East,98,0.0,-999.0,96,-99.99,,,0.02,0,weatherlink.com 1.10,2013-08-12 09:04:00,
2013-08-12 05:21:00,58.4,57.0,29.97,ESE,106,0.0,-999.0,96,-99.99,,,0.02,0,weatherlink.com 1.10,2013-08-12 09:21:00,
2013-08-12 05:35:00,58.4,57.0,29.97,SSE,155,0.0,-999.0,96,-99.99,,,0.02,0,weatherlink.com 1.10,2013-08-12 09:35:00,
2013-08-12 05:51:00,58.6,58.0,29.97,SSE,155,0.0,-999.0,96,-99.99,,,0.02,0,weatherlink.com 1.10,2013-08-12 09:51:00,
2013-08-12 06:05:00,58.6,58.0,29.97,SSE,155,0.0,-999.0,96,-99.99,,,0.02,0,weatherlink.com 1.10,2013-08-12 10:05:00,
2013-08-12 06:21:00,58.6,58.0,29.97,SSE,155,0.0,-999.0,96,-99.99,,,0.02,11,weatherlink.com 1.10,2013-08-12 10:21:00,
2013-08-12 06:36:00,58.6,58.0,29.98,SSE,155,0.0,-999.0,96,-99.99,,,0.02,26,weatherlink.com 1.10,2013-08-12 10:36:00,
2013-08-12 06:51:00,58.9,58.0,29.98,SSE,155,0.0,-999.0,97,-99.99,,,0.02,14,weatherlink.com 1.10,2013-08-12 10:51:00,
2013-08-12 07:05:00,59.2,58.0,29.98,SSE,155,0.0,-999.0,97,-99.99,,,0.02,19,weatherlink.com 1.10,2013-08-12 11:05:00,
2013-08-12 07:21:00,59.3,59.0,29.99,SSE,155,0.0,-999.0,97,-99.99,,,0.02,33,weatherlink.com 1.10,2013-08-12 11:21:00,
2013-08-12 07:36:00,59.8,59.0,29.99,SE,140,0.0,-999.0,97,-99.99,,,0.02,60,weatherlink.com 1.10,2013-08-12 11:36:00,
2013-08-12 07:51:00,60.4,60.0,29.98,SE,140,0.0,-999.0,100,-99.99,,,0.02,39,weatherlink.com 1.10,2013-08-12 11:51:00,
2013-08-12 08:06:00,60.9,61.0,29.98,SE,140,0.0,-999.0,100,-99.99,,,0.02,37,weatherlink.com 1.10,2013-08-12 12:06:00,
2013-08-12 08:21:00,61.3,61.0,29.98,SE,140,0.0,-999.0,100,-99.99,,,0.02,63,weatherlink.com 1.10,2013-08-12 12:21:00,
2013-08-12 08:36:00,62.0,62.0,29.98,SE,140,0.0,-999.0,99,-99.99,,,0.02,56,weatherlink.com 1.10,2013-08-12 12:36:00,
2013-08-12 08:51:00,62.6,62.0,29.98,SE,140,0.0,-999.0,96,-99.99,,,0.02,51,weatherlink.com 1.10,2013-08-12 12:51:00,
2013-08-12 09:06:00,63.1,61.0,29.97,SE,140,0.0,-999.0,93,-99.99,,,0.02,54,weatherlink.com 1.10,2013-08-12 13:06:00,
2013-08-12 09:22:00,64.0,60.0,29.97,SE,140,0.0,-999.0,86,-99.99,,,0.02,60,weatherlink.com 1.10,2013-08-12 13:22:00,
2013-08-12 09:37:00,65.2,60.0,29.97,SE,140,0.0,-999.0,82,-99.99,,,0.02,67,weatherlink.com 1.10,2013-08-12 13:37:00,
2013-08-12 09:52:00,66.3,59.0,29.97,ESE,122,0.0,-999.0,77,-99.99,,,0.02,631,weatherlink.com 1.10,2013-08-12 13:52:00,
2013-08-12 10:07:00,68.3,61.0,29.97,ESE,122,0.0,-999.0,78,-99.99,,,0.02,679,weatherlink.com 1.10,2013-08-12 14:07:00,
2013-08-12 10:22:00,70.9,61.0,29.97,ESE,116,0.0,-999.0,72,-99.99,,,0.02,717,weatherlink.com 1.10,2013-08-12 14:22:00,
2013-08-12 10:37:00,73.2,62.0,29.97,ESE,116,1.0,-999.0,67,-99.99,,,0.02,759,weatherlink.com 1.10,2013-08-12 14:37:00,
2013-08-12 10:53:00,75.3,62.0,29.97,WSW,248,0.0,-999.0,63,-99.99,,,0.02,795,weatherlink.com 1.10,2013-08-12 14:53:00,
2013-08-12 11:08:00,77.0,60.0,29.97,SE,137,0.0,-999.0,55,-99.99,,,0.02,821,weatherlink.com 1.10,2013-08-12 15:08:00,
2013-08-12 11:23:00,78.3,62.0,29.97,ESE,110,0.0,-999.0,58,-99.99,,,0.02,940,weatherlink.com 1.10,2013-08-12 15:23:00,
2013-08-12 11:38:00,79.4,61.0,29.96,ESE,110,0.0,-999.0,53,-99.99,,,0.02,279,weatherlink.com 1.10,2013-08-12 15:38:00,
2013-08-12 11:53:00,79.6,59.0,29.96,SE,132,0.0,-999.0,49,-99.99,,,0.02,940,weatherlink.com 1.10,2013-08-12 15:53:00,
2013-08-12 12:08:00,80.5,57.0,29.96,ESE,122,1.0,-999.0,45,-99.99,,,0.02,916,weatherlink.com 1.10,2013-08-12 16:08:00,
2013-08-12 12:24:00,81.4,61.0,29.95,SE,130,1.0,-999.0,50,-99.99,,,0.02,921,weatherlink.com 1.10,2013-08-12 16:24:00,
2013-08-12 12:41:00,81.8,58.0,29.95,SE,135,0.0,-999.0,45,-99.99,,,0.02,925,weatherlink.com 1.10,2013-08-12 16:41:00,
2013-08-12 12:54:00,82.6,60.0,29.95,SE,135,1.0,-999.0,46,-99.99,,,0.02,930,weatherlink.com 1.10,2013-08-12 16:54:00,
2013-08-12 13:11:00,83.0,60.0,29.94,SE,135,0.0,-999.0,45,-99.99,,,0.02,928,weatherlink.com 1.10,2013-08-12 17:11:00,
2013-08-12 13:24:00,83.4,59.0,29.94,SSE,150,0.0,-999.0,43,-99.99,,,0.02,925,weatherlink.com 1.10,2013-08-12 17:24:00,
2013-08-12 13:41:00,83.6,61.0,29.94,South,188,0.0,-999.0,47,-99.99,,,0.02,926,weatherlink.com 1.10,2013-08-12 17:41:00,
2013-08-12 13:55:00,83.8,60.0,29.94,South,188,0.0,-999.0,44,-99.99,,,0.02,907,weatherlink.com 1.10,2013-08-12 17:55:00,
2013-08-12 14:09:00,84.0,59.0,29.93,South,188,0.0,-999.0,43,-99.99,,,0.02,912,weatherlink.com 1.10,2013-08-12 18:09:00,
2013-08-12 14:25:00,84.0,61.0,29.93,SSE,147,0.0,-999.0,46,-99.99,,,0.02,926,weatherlink.com 1.10,2013-08-12 18:25:00,
2013-08-12 14:41:00,83.6,57.0,29.93,South,173,0.0,-999.0,40,-99.99,,,0.02,225,weatherlink.com 1.10,2013-08-12 18:41:00,
2013-08-12 14:55:00,83.6,58.0,29.93,South,188,1.0,-999.0,42,-99.99,,,0.02,898,weatherlink.com 1.10,2013-08-12 18:55:00,
2013-08-12 15:11:00,83.8,57.0,29.92,SSE,166,0.0,-999.0,40,-99.99,,,0.02,803,weatherlink.com 1.10,2013-08-12 19:11:00,
2013-08-12 15:26:00,84.0,60.0,29.92,SE,131,0.0,-999.0,45,-99.99,,,0.02,789,weatherlink.com 1.10,2013-08-12 19:26:00,
2013-08-12 15:41:00,84.1,57.0,29.91,SSE,161,0.0,-999.0,39,-99.99,,,0.02,731,weatherlink.com 1.10,2013-08-12 19:41:00,
2013-08-12 15:56:00,84.3,59.0,29.91,SE,131,1.0,-999.0,42,-99.99,,,0.02,673,weatherlink.com 1.10,2013-08-12 19:56:00,
2013-08-12 16:11:00,83.2,57.0,29.91,SE,138,1.0,-999.0,41,-99.99,,,0.02,88,weatherlink.com 1.10,2013-08-12 20:11:00,
2013-08-12 16:26:00,82.0,59.0,29.91,ESE,123,1.0,-999.0,46,-99.99,,,0.02,70,weatherlink.com 1.10,2013-08-12 20:26:00,
2013-08-12 16:41:00,80.9,59.0,29.90,ESE,107,0.0,-999.0,47,-99.99,,,0.02,70,weatherlink.com 1.10,2013-08-12 20:41:00,
2013-08-12 16:57:00,80.3,58.0,29.90,SE,134,0.0,-999.0,47,-99.99,,,0.02,193,weatherlink.com 1.10,2013-08-12 20:57:00,
2013-08-12 17:11:00,80.1,58.0,29.90,South,179,0.0,-999.0,47,-99.99,,,0.02,56,weatherlink.com 1.10,2013-08-12 21:11:00,
2013-08-12 17:26:00,79.8,58.0,29.91,SE,134,2.0,-999.0,48,-99.99,,,0.02,132,weatherlink.com 1.10,2013-08-12 21:26:00,
2013-08-12 17:42:00,79.4,58.0,29.90,East,101,0.0,-999.0,48,-99.99,,,0.02,40,weatherlink.com 1.10,2013-08-12 21:42:00,
2013-08-12 17:56:00,78.8,59.0,29.89,SSE,150,0.0,-999.0,51,-99.99,,,0.02,35,weatherlink.com 1.10,2013-08-12 21:56:00,
2013-08-12 18:12:00,78.5,63.0,29.89,SSE,150,0.0,-999.0,59,-99.99,,,0.02,30,weatherlink.com 1.10,2013-08-12 22:12:00,
2013-08-12 18:27:00,77.9,63.0,29.89,SSE,150,0.0,-999.0,60,-99.99,,,0.02,18,weatherlink.com 1.10,2013-08-12 22:27:00,
2013-08-12 18:42:00,77.0,62.0,29.89,SSE,150,0.0,-999.0,61,-99.99,,,0.02,23,weatherlink.com 1.10,2013-08-12 22:42:00,
2013-08-12 18:57:00,76.1,63.0,29.89,SSE,150,0.0,-999.0,63,-99.99,,,0.02,11,weatherlink.com 1.10,2013-08-12 22:57:00,
2013-08-12 19:12:00,75.1,63.0,29.89,SSE,150,0.0,-999.0,66,-99.99,,,0.02,12,weatherlink.com 1.10,2013-08-12 23:12:00,
2013-08-12 19:27:00,74.2,62.0,29.89,SSE,150,0.0,-999.0,66,-99.99,,,0.02,7,weatherlink.com 1.10,2013-08-12 23:27:00,
2013-08-12 19:42:00,73.3,62.0,29.89,SSE,150,0.0,-999.0,68,-99.99,,,0.02,0,weatherlink.com 1.10,2013-08-12 23:42:00,
2013-08-12 19:57:00,72.5,62.0,29.89,SSE,150,0.0,-999.0,69,-99.99,,,0.02,0,weatherlink.com 1.10,2013-08-12 23:57:00,
2013-08-12 20:13:00,71.6,62.0,29.89,SSE,150,0.0,-999.0,71,-99.99,,,0.02,0,weatherlink.com 1.10,2013-08-13 00:13:00,
2013-08-12 20:28:00,70.8,61.0,29.89,SSE,150,0.0,-999.0,72,-99.99,,,0.02,0,weatherlink.com 1.10,2013-08-13 00:28:00,
2013-08-12 20:43:00,69.9,62.0,29.89,SSE,150,0.0,-999.0,75,-99.99,,,0.02,0,weatherlink.com 1.10,2013-08-13 00:43:00,
2013-08-12 20:59:00,68.9,62.0,29.89,SSE,150,0.0,-999.0,78,-99.99,,,0.02,0,weatherlink.com 1.10,2013-08-13 00:59:00,
2013-08-12 21:13:00,68.1,61.0,29.89,SSE,150,0.0,-999.0,79,-99.99,,,0.02,0,weatherlink.com 1.10,2013-08-13 01:13:00,
2013-08-12 21:28:00,67.4,61.0,29.90,SSE,150,0.0,-999.0,80,-99.99,,,0.02,0,weatherlink.com 1.10,2013-08-13 01:28:00,
2013-08-12 21:44:00,66.8,62.0,29.90,SSE,150,0.0,-999.0,83,-99.99,,,0.02,0,weatherlink.com 1.10,2013-08-13 01:44:00,
2013-08-12 21:58:00,66.3,61.0,29.89,SSE,150,0.0,-999.0,84,-99.99,,,0.02,0,weatherlink.com 1.10,2013-08-13 01:58:00,
2013-08-12 22:14:00,65.8,61.0,29.89,SSE,150,0.0,-999.0,85,-99.99,,,0.02,0,weatherlink.com 1.10,2013-08-13 02:14:00,
2013-08-12 22:29:00,65.5,62.0,29.89,SSE,150,0.0,-999.0,87,-99.99,,,0.02,0,weatherlink.com 1.10,2013-08-13 02:29:00,
2013-08-12 22:44:00,65.2,62.0,29.89,SSE,150,0.0,-999.0,88,-99.99,,,0.02,0,weatherlink.com 1.10,2013-08-13 02:44:00,
2013-08-12 23:01:00,64.8,61.0,29.89,SSE,150,0.0,-999.0,88,-99.99,,,0.02,0,weatherlink.com 1.10,2013-08-13 03:01:00,
2013-08-12 23:15:00,64.7,62.0,29.89,SSE,150,0.0,-999.0,89,-99.99,,,0.02,0,weatherlink.com 1.10,2013-08-13 03:15:00,
2013-08-12 23:31:00,64.3,61.0,29.89,SSE,150,0.0,-999.0,89,-99.99,,,0.02,0,weatherlink.com 1.10,2013-08-13 03:31:00,
2013-08-12 23:45:00,64.2,61.0,29.89,SSE,150,0.0,-999.0,90,-99.99,,,0.02,0,weatherlink.com 1.10,2013-08-13 03:45:00,